Other Public Products
Issued by NWS Grand Forks, ND

Home | Current Version | Previous Version | Graphics & Text | Print | Product List | Glossary On
Versions: 1 2 3 4 5 6 7 8 9 10 11 12 13 14 15 16 17 18 19 20 21 22 23 24 25 26 27 28 29 30 31 32 33 34 35 36 37 38 39 40 41 42 43 44 45 46 47 48 49 50
000
FPUS83 KFGF 221710
OPUFGF
PRAIRIE TO PINES WEATHER ROUNDUP
NATIONAL WEATHER SERVICE EASTERN NORTH DAKOTA/GRAND FORKS ND
1200 PM CDT FRI MAY 22 2015

 **SATELLITE DATA USED TO AUGMENT SKY COVER AT AUTOMATED STATIONS**
 *****  WEATHER ACROSS EASTERN NORTH DAKOTA  *****

CITY           SKY/WX    TMP DP  RH WIND       PRES   REMARKS
GRAND FORKS    SUNNY     71  38  29 SW8       30.16S
GRAND FORKS AF SUNNY     72  38  29 SW8       30.16F
GRAND CITY NWS   N/A     68 N/A N/A SW12        N/A
BUXTON         NOT AVBL
DEVILS LAKE    SUNNY     70  37  30 SW8       30.16S
FARGO          SUNNY     69  37  30 CALM      30.19S
WAHPETON ARPT  SUNNY     68  32  26 CALM      30.21S
$$

 *****  WEATHER ACROSS CENTRAL AND WESTERN NORTH DAKOTA  *****

CITY           SKY/WX    TMP DP  RH WIND       PRES   REMARKS
JAMESTOWN      SUNNY     69  40  34 S8        30.18R
BISMARCK       MOSUNNY   72  38  29 VRB5      30.16S
MINOT          SUNNY     73  34  23 S12       30.13S
MINOT AFB      SUNNY     76  35  23 SE12      30.11F HAZE
GARRISON         N/A     71  29  21 SE7       30.14F
WILLISTON      SUNNY     72  32  23 SE13      30.11F
DICKINSON      SUNNY     69  33  26 SE18G32   30.11S
HETTINGER      MOSUNNY   67  36  31 SE23G32   30.12F
$$

 *****  OTHER OBSERVATIONS NORTHEAST NORTH DAKOTA  *****

CITY           SKY/WX    TMP DP  RH WIND       PRES   REMARKS
WALHALLA       FAIR      75  36  23 W5        30.13S
LANGDON        FAIR      75  37  25 W10       30.16S
CAVALIER       FAIR      73  41  31 SW7       30.13F
GRAFTON        FAIR      70  45  40 S7G14     30.16S
CANDO          FAIR      73  32  21 SW12      30.15F
FORT TOTTEN      N/A     73  34  24 S6        29.95S
ROLLA            N/A     72  30  21 W8G16     30.16S
RUGBY          NOT AVBL
 ***** THE ABOVE OBSERVATIONS ARE NON NWS ARE NOT QUALITY
        CONTROLLED AND MAY MIS-REPORT RAIN FOR SNOW...
$$

 *****  OTHER OBSERVATIONS SOUTHEAST NORTH DAKOTA *****

CITY           SKY/WX    TMP DP  RH WIND       PRES   REMARKS
COOPERSTOWN    NOT AVBL
VALLEY CITY    FAIR      68  37  32 S9        30.19S
OAKES            N/A     68  36  30 SE8       30.19S
GWINNER        NOT AVBL
BUFFALO        NOT AVBL
WYNDMERE         N/A     72  34  25 S7          N/A
 ***** THE ABOVE OBSERVATIONS ARE NON NWS ARE NOT QUALITY
       CONTROLLED AND MAY MIS-REPORT RAIN FOR SNOW...
$$

  *****  WEATHER ACROSS NORTHERN MINNESOTA  *****

CITY           SKY/WX    TMP DP  RH WIND       PRES   REMARKS
FLAG ISLAND    SUNNY     54  43  66 S16       30.13F
WARROAD        SUNNY     68  39  34 SW7       30.15F
ROSEAU         SUNNY     68  43  40 SW10      30.15F
HALLOCK        SUNNY     72  41  33 SW8       30.14S
THF RVR FALLS  SUNNY     68  32  26 SW3       30.18S
HALSTAD        NOT AVBL
FOSSTON        SUNNY     70  39  32 CALM      30.19S
BAUDETTE       SUNNY     68  35  29 CALM      30.17S
WASKISH        SUNNY     63  46  55 CALM      30.19S
CROOKSTON      SUNNY     70  36  28 SW7       30.18S
$$
  *****  WEATHER ACROSS CENTRAL AND WEST MINNESOTA  *****

CITY           SKY/WX    TMP DP  RH WIND       PRES   REMARKS
BEMIDJI        SUNNY     66  32  28 SE6       30.19S
PARK RAPIDS    SUNNY     68  30  24 S5        30.20R
WADENA         SUNNY     66  37  34 S5        30.21R
DETROIT LAKES  SUNNY     66  32  28 W6        30.21S
MOORHEAD       SUNNY     66  37  34 S5        30.21S
FERGUS FALLS   SUNNY     66  36  32 CALM      30.21S
ELBOW LAKE     FAIR      66  38  35 CALM      30.21S
MORRIS MN      SUNNY     70  37  30 SE6       30.20S
STAPLES        SUNNY     66  30  26 SW3       30.21S
WHEATON        SUNNY     68  37  32 NE3       30.22S
$$
  *****  WEATHER ELSEWHERE ACROSS MINNESOTA  *****

CITY           SKY/WX    TMP DP  RH WIND       PRES   REMARKS
DULUTH         SUNNY     66  31  27 NW12G18   30.20F
INTRNTL FALLS  SUNNY     65  29  25 VRB6      30.17F
ELY            SUNNY     63  27  25 W3        30.19S
CLOQUET        SUNNY     66  27  22 N5        30.20F
BRAINERD       SUNNY     67  33  28 CALM      30.22R
HIBBING        SUNNY     65  29  25 CALM      30.19F
ALEXANDRIA     SUNNY     66  33  29 W8        30.24R
SAINT CLOUD    SUNNY     68  33  27 CALM      30.22S
MINNEAPOLIS    SUNNY     68  33  27 SE5       30.22S
$$

  *****  WEATHER ACROSS SOUTH DAKOTA  *****

CITY           SKY/WX    TMP DP  RH WIND       PRES   REMARKS
SIOUX FALLS    PTSUNNY   71  39  31 NW3       30.20F
BROOKINGS      SUNNY     70  36  28 E9        30.21S
WATERTOWN      SUNNY     70  35  27 VRB3      30.20R
HURON          SUNNY     71  37  28 SE5       30.18F
SISSETON         N/A     70  31  23 E8        30.19S
ABERDEEN       SUNNY     73  38  27 E7        30.18R
MITCHELL       SUNNY     72  40  31 VRB6      30.19F
PIERRE         MOSUNNY   69  39  33 SE16G25   30.14F
MOBRIDGE       SUNNY     73  36  25 S14       30.14S
RAPID CITY     CLOUDY    58  45  62 S15       30.10S
$$

  *****  SOME WEATHER IN NEARBY STATES *****

CITY           SKY/WX    TMP DP  RH WIND       PRES   REMARKS
GLASGOW MT     SUNNY     68  35  29 E17G29    30.02F
GREAT FALLS MT SUNNY     63  42  46 NW7       29.95F
CHEYENNE WY    LGT RAIN  44  42  93 SE10      30.04S FOG
SCOTTSBLUFF NE LGT RAIN  50  32  50 SE14      30.08S
OMAHA NE       CLOUDY    67  44  43 SE5       30.23F
DES MOINES IA  CLOUDY    74  41  30 S6        30.23R
DAVENPORT IA   SUNNY     74  36  25 MISG      30.21S
CHICAGO IL     MOSUNNY   62  30  29 E9        30.23R
EAU CLAIRE WI  SUNNY     66  32  28 VRB5      30.23R
LA CROSSE WI   SUNNY     69  39  33 CALM      30.21S
$$

  *****  SOME NATIONAL WEATHER *****

CITY           SKY/WX    TMP DP  RH WIND       PRES   REMARKS
LA GUARDIA NY  PTSUNNY   73  37  27 W17G25    29.91S
RALEIGH NC     MOSUNNY   69  45  41 NE7       30.20S
ATLANTA GA     MOSUNNY   71  51  49 E9        30.22S
NEW ORLEANS LA PTSUNNY   74  62  66 NE7       30.17F
OKLAHOMA CITY  LGT RAIN  56  54  93 S9        30.20R
ALBUQUERQUE NM PTSUNNY   59  45  59 SW9       30.11F
SALT LAKE CITY CLOUDY    60  45  57 S6        29.91S
LOS ANGELES CA PTSUNNY   60  51  72 W9G20     30.03S
BOISE ID       MOSUNNY   64  49  57 W6        29.90S
SEATTLE WA     CLOUDY    55  50  83 SW9       29.99S
$$

*** WEATHER ACROSS MANITOBA...SASKATCHEWAN AND ONTARIO ***
                ***ONTARIO***

CITY           SKY/WX    TMP DP  RH WIND       PRES   REMARKS
GERALDTON      SUNNY     46  19  34 NW9       30.20S
THUNDER BAY    SUNNY     55  28  35 E10       30.21F
SIOUX LOOKOUT  SUNNY     59  25  27 SW5       30.15F
TORONTO        PTSUNNY   57  30  35 NW17G26   30.07R
BIG TROUT LK   SUNNY     50  21  32 S6        30.05F
PICKLE LAKE    MOSUNNY   54  18  24 NW5       30.12F
DRYDEN         SUNNY     63  28  27 S7        30.14F
KENORA         MOSUNNY   63  37  39 S7        30.14F
$$
                *** MANITOBA***

CITY           SKY/WX    TMP DP  RH WIND       PRES   REMARKS
BRANDON        MOSUNNY   73  39  29 W15G23    30.12F
DAUPHIN        SUNNY     77  39  25 W12G24    30.06F
ISLAND LAKE    PTSUNNY   63  30  29 S12G20    29.94F
PILOT MOUND      N/A     75  34  22 SW7         N/A
THE PAS        CLOUDY    77  36  22 NW14      29.96S
THOMPSON       MOSUNNY   68  39  34 N8        29.90S
WINNIPEG       MOSUNNY   73  43  33 W14G20    30.10S
LYNN LAKE      SUNNY     73  32  21 N8        29.93R
CHURCHILL      CLOUDY    36  34  93 N22G31    29.90R FOG
GILLAM         PTSUNNY   64  34  32 S7        29.90F
$$
                ***SASKATCHEWAN***

CITY           SKY/WX    TMP DP  RH WIND       PRES   REMARKS
ESTEVAN        MOSUNNY   73  34  23 VRB6      30.12S
KINDERSLEY     MOSUNNY   72  28  20 S21G28    30.05F
LLOYDMINSTER   MOSUNNY   72  28  20 SE9       30.03S
PRINCE ALBERT  MOSUNNY   77  36  22 W14G20    30.04F
REGINA         MOSUNNY   73  37  27 VRB2      30.10S
YORKTON        SUNNY     75  27  16 W9G17     30.08F


USA.gov is the U.S. government's official web portal to all federal, state and local government web resources and services.